TimeEDT,TemperatureF,Dew PointF,Humidity,Sea Level PressureIn,VisibilityMPH,Wind Direction,Wind SpeedMPH,Gust SpeedMPH,PrecipitationIn,Events,Conditions,WindDirDegrees,DateUTC
12:15 AM,37.4,30.2,75,29.86,10.0,North,3.5,-,N/A,,Overcast,350,2012-11-02 04:15:00
12:35 AM,39.2,30.2,70,29.85,10.0,NW,3.5,-,N/A,,Overcast,320,2012-11-02 04:35:00
12:55 AM,39.2,30.2,70,29.86,10.0,NW,3.5,-,N/A,,Overcast,320,2012-11-02 04:55:00
1:15 AM,41.0,30.2,65,29.85,10.0,NW,4.6,-,N/A,,Overcast,320,2012-11-02 05:15:00
1:35 AM,37.4,32.0,81,29.86,10.0,WNW,3.5,-,N/A,,Overcast,300,2012-11-02 05:35:00
1:55 AM,37.4,32.0,81,29.86,10.0,WNW,3.5,-,N/A,,Overcast,300,2012-11-02 05:55:00
2:15 AM,39.2,30.2,70,29.86,10.0,NW,3.5,-,N/A,,Overcast,310,2012-11-02 06:15:00
2:35 AM,39.2,30.2,70,29.86,10.0,NW,4.6,-,N/A,,Overcast,310,2012-11-02 06:35:00
2:55 AM,39.2,30.2,70,29.87,10.0,NW,5.8,-,N/A,,Overcast,320,2012-11-02 06:55:00
3:15 AM,39.2,32.0,75,29.88,10.0,NNW,5.8,-,N/A,,Overcast,330,2012-11-02 07:15:00
3:55 AM,41.0,33.8,76,29.89,10.0,NNW,6.9,-,N/A,,Overcast,340,2012-11-02 07:55:00
4:15 AM,39.2,33.8,81,29.89,10.0,NW,6.9,-,N/A,,Overcast,320,2012-11-02 08:15:00
4:35 AM,37.4,32.0,81,29.89,10.0,NW,4.6,-,N/A,,Scattered Clouds,320,2012-11-02 08:35:00
4:55 AM,37.4,32.0,81,29.90,10.0,NNW,4.6,-,N/A,,Scattered Clouds,330,2012-11-02 08:55:00
5:15 AM,37.4,32.0,81,29.90,10.0,NW,5.8,-,N/A,,Mostly Cloudy,320,2012-11-02 09:15:00
5:35 AM,35.6,32.0,87,29.91,10.0,NW,4.6,-,N/A,,Scattered Clouds,320,2012-11-02 09:35:00
5:55 AM,35.6,32.0,87,29.91,10.0,NW,3.5,-,N/A,,Clear,320,2012-11-02 09:55:00
6:15 AM,35.6,32.0,87,29.92,10.0,NW,3.5,-,N/A,,Clear,320,2012-11-02 10:15:00
6:35 AM,35.6,32.0,87,29.92,10.0,NNW,4.6,-,N/A,,Clear,330,2012-11-02 10:35:00
6:55 AM,35.6,32.0,87,29.93,10.0,NNW,5.8,-,N/A,,Clear,340,2012-11-02 10:55:00
7:35 AM,33.8,30.2,87,29.94,10.0,North,3.5,-,N/A,,Mostly Cloudy,360,2012-11-02 11:35:00
7:55 AM,33.8,30.2,87,29.95,10.0,Calm,Calm,-,N/A,,Mostly Cloudy,0,2012-11-02 11:55:00
8:15 AM,33.8,30.2,87,29.95,10.0,Calm,Calm,-,N/A,,Scattered Clouds,0,2012-11-02 12:15:00
8:35 AM,33.8,28.4,81,29.96,10.0,WNW,3.5,-,N/A,,Clear,300,2012-11-02 12:35:00
8:55 AM,32.0,28.4,87,29.97,10.0,West,5.8,-,N/A,,Mostly Cloudy,280,2012-11-02 12:55:00
9:15 AM,33.8,30.2,87,29.98,10.0,WNW,4.6,-,N/A,,Scattered Clouds,300,2012-11-02 13:15:00
9:55 AM,39.2,32.0,75,30.00,10.0,NW,5.8,-,N/A,,Clear,310,2012-11-02 13:55:00
10:35 AM,41.0,32.0,70,30.01,10.0,NW,6.9,-,N/A,,Mostly Cloudy,320,2012-11-02 14:35:00
10:55 AM,41.0,32.0,70,30.01,10.0,NNW,6.9,-,N/A,,Overcast,330,2012-11-02 14:55:00
11:15 AM,41.0,32.0,70,30.02,10.0,North,11.5,19.6,N/A,,Overcast,350,2012-11-02 15:15:00
11:35 AM,42.8,32.0,66,30.02,10.0,NNW,8.1,-,N/A,,Overcast,340,2012-11-02 15:35:00
11:55 AM,41.0,32.0,70,30.04,10.0,NW,9.2,-,N/A,,Overcast,320,2012-11-02 15:55:00
12:15 PM,41.0,32.0,70,30.04,10.0,North,13.8,18.4,N/A,,Overcast,350,2012-11-02 16:15:00
12:35 PM,42.8,32.0,66,30.04,10.0,North,10.4,-,N/A,,Mostly Cloudy,360,2012-11-02 16:35:00
12:55 PM,42.8,32.0,66,30.03,10.0,NNW,10.4,-,N/A,,Mostly Cloudy,330,2012-11-02 16:55:00
1:15 PM,42.8,32.0,66,30.03,10.0,NNW,9.2,-,N/A,,Overcast,330,2012-11-02 17:15:00
1:35 PM,42.8,32.0,66,30.03,10.0,NNW,11.5,-,N/A,,Overcast,330,2012-11-02 17:35:00
1:55 PM,44.6,32.0,61,30.03,10.0,NW,11.5,16.1,N/A,,Overcast,320,2012-11-02 17:55:00
2:15 PM,44.6,30.2,57,30.03,10.0,NW,10.4,16.1,N/A,,Overcast,310,2012-11-02 18:15:00
2:35 PM,44.6,30.2,57,30.03,10.0,NW,11.5,16.1,N/A,,Overcast,310,2012-11-02 18:35:00
2:55 PM,44.6,32.0,61,30.04,10.0,WNW,15.0,-,N/A,,Overcast,300,2012-11-02 18:55:00
3:15 PM,44.6,32.0,61,30.04,10.0,NW,10.4,17.3,N/A,,Overcast,310,2012-11-02 19:15:00
3:35 PM,44.6,32.0,61,30.04,10.0,NNW,8.1,-,N/A,,Overcast,330,2012-11-02 19:35:00
3:55 PM,44.6,32.0,61,30.04,10.0,NNW,10.4,-,N/A,,Overcast,330,2012-11-02 19:55:00
4:15 PM,44.6,30.2,57,30.04,10.0,WNW,11.5,-,N/A,,Mostly Cloudy,300,2012-11-02 20:15:00
4:55 PM,44.6,30.2,57,30.05,10.0,NW,6.9,-,N/A,,Overcast,320,2012-11-02 20:55:00
5:15 PM,44.6,32.0,61,30.05,10.0,NW,8.1,-,N/A,,Overcast,320,2012-11-02 21:15:00
5:35 PM,44.6,30.2,57,30.05,10.0,North,10.4,-,N/A,,Overcast,360,2012-11-02 21:35:00
5:55 PM,42.8,32.0,66,30.06,10.0,North,5.8,-,N/A,,Overcast,350,2012-11-02 21:55:00
6:15 PM,41.0,30.2,65,30.06,10.0,NNW,5.8,-,N/A,,Scattered Clouds,330,2012-11-02 22:15:00
6:35 PM,41.0,32.0,70,30.07,10.0,NNW,8.1,-,N/A,,Mostly Cloudy,330,2012-11-02 22:35:00
6:55 PM,41.0,32.0,70,30.07,10.0,NNW,6.9,-,N/A,,Overcast,330,2012-11-02 22:55:00
7:15 PM,39.2,32.0,75,30.08,10.0,NW,8.1,-,N/A,,Overcast,320,2012-11-02 23:15:00
7:35 PM,37.4,32.0,81,30.09,10.0,NW,5.8,-,N/A,,Scattered Clouds,320,2012-11-02 23:35:00
7:55 PM,35.6,32.0,87,30.09,10.0,NW,4.6,-,N/A,,Clear,310,2012-11-02 23:55:00
8:55 PM,35.6,30.2,81,30.10,10.0,NNW,4.6,-,N/A,,Clear,330,2012-11-03 00:55:00
9:15 PM,35.6,30.2,81,30.10,10.0,NW,5.8,-,N/A,,Clear,320,2012-11-03 01:15:00
9:35 PM,35.6,30.2,81,30.10,10.0,NW,3.5,-,N/A,,Clear,320,2012-11-03 01:35:00
9:55 PM,32.0,30.2,93,30.10,10.0,WNW,4.6,-,N/A,,Clear,300,2012-11-03 01:55:00
10:15 PM,33.8,30.2,87,30.10,10.0,NW,4.6,-,N/A,,Clear,320,2012-11-03 02:15:00
10:35 PM,33.8,30.2,87,30.11,10.0,NW,4.6,-,N/A,,Clear,310,2012-11-03 02:35:00
10:55 PM,32.0,30.2,93,30.12,10.0,WNW,4.6,-,N/A,,Clear,300,2012-11-03 02:55:00
11:15 PM,33.8,30.2,87,30.11,10.0,NW,3.5,-,N/A,,Clear,320,2012-11-03 03:15:00
11:35 PM,33.8,30.2,87,30.12,10.0,NW,3.5,-,N/A,,Clear,320,2012-11-03 03:35:00
11:55 PM,33.8,30.2,87,30.12,10.0,NNW,3.5,-,N/A,,Clear,330,2012-11-03 03:55:00